When you browse on this site, cookies collect data to enhance your experience and personalize the content and advertising you see.
Visit our Privacy Policy to learn more. By continuing to use the site, you agree to this use of cookies and data.
  • în România
  • Lista ţărilor
  • Pe 7 zile
  • Temperatura apei
  • Meteo pe hartă
  • Widget-uri
  • user-avatar
    Intrare

    Meteo pe oră la Buenos Aires

    Astăzi, 5 Iunie, Vineri

    Timp Temperatura Precipitaţii Vânt Presiune Umiditate
    00:00 +11°C° 0 mm 3 m/s 765 mmHg 76%
    01:00 +11°C° 0 mm 3 m/s 765 mmHg 78%
    02:00 +11°C° 0 mm 3 m/s 765 mmHg 80%
    03:00 +11°C° 0 mm 3 m/s 765 mmHg 81%
    04:00 +11°C° 0 mm 3 m/s 764 mmHg 83%
    05:00 +11°C° 0 mm 4 m/s 764 mmHg 84%
    06:00 +11°C° 0 mm 4 m/s 764 mmHg 84%
    07:00 +10°C° 0 mm 5 m/s 764 mmHg 84%
    08:00 +10°C° 0 mm 5 m/s 763 mmHg 83%
    09:00 +12°C° 0 mm 5 m/s 763 mmHg 81%
    10:00 +13°C° 0 mm 6 m/s 763 mmHg 78%
    11:00 +13°C° 0 mm 6 m/s 763 mmHg 76%
    12:00 +14°C° 0 mm 6 m/s 762 mmHg 77%
    13:00 +14°C° 0 mm 7 m/s 761 mmHg 78%
    14:00 +15°C° 0 mm 7 m/s 760 mmHg 79%
    15:00 +15°C° 0.2 mm 7 m/s 759 mmHg 81%
    16:00 +15°C° 0.2 mm 8 m/s 759 mmHg 82%
    17:00 +15°C° 0.2 mm 8 m/s 758 mmHg 84%
    18:00 +15°C° 0.3 mm 8 m/s 758 mmHg 85%
    19:00 +15°C° 0.3 mm 9 m/s 758 mmHg 86%
    20:00 +15°C° 0.3 mm 9 m/s 759 mmHg 88%
    21:00 +16°C° 0.1 mm 9 m/s 758 mmHg 88%
    22:00 +16°C° 0.1 mm 9 m/s 758 mmHg 88%
    23:00 +16°C° 0.1 mm 9 m/s 758 mmHg 88%

    Mâine, 6 Iunie, Sâmbătă

    Timp Temperatura Precipitaţii Vânt Presiune Umiditate
    00:00 +16°C° 0.4 mm 9 m/s 757 mmHg 88%
    01:00 +16°C° 0.4 mm 8 m/s 757 mmHg 88%
    02:00 +15°C° 0.4 mm 8 m/s 757 mmHg 89%
    03:00 +15°C° 1.4 mm 8 m/s 757 mmHg 89%
    04:00 +15°C° 1.4 mm 8 m/s 757 mmHg 88%
    05:00 +15°C° 1.4 mm 8 m/s 756 mmHg 88%
    06:00 +15°C° 0.4 mm 8 m/s 756 mmHg 87%
    07:00 +16°C° 0.4 mm 8 m/s 756 mmHg 86%
    08:00 +16°C° 0.4 mm 8 m/s 757 mmHg 85%
    09:00 +16°C° 0 mm 7 m/s 756 mmHg 84%
    10:00 +16°C° 0 mm 6 m/s 756 mmHg 82%
    11:00 +17°C° 0 mm 5 m/s 756 mmHg 81%
    12:00 +18°C° 0 mm 4 m/s 756 mmHg 82%
    13:00 +18°C° 0 mm 3 m/s 756 mmHg 82%
    14:00 +18°C° 0 mm 2 m/s 756 mmHg 82%
    15:00 +18°C° 0 mm 1 m/s 756 mmHg 84%
    16:00 +18°C° 0 mm 1 m/s 756 mmHg 86%
    17:00 +16°C° 0 mm 0 m/s 756 mmHg 88%
    18:00 +16°C° 0 mm 1 m/s 757 mmHg 90%
    19:00 +16°C° 0 mm 1 m/s 757 mmHg 92%
    20:00 +15°C° 0 mm 1 m/s 757 mmHg 95%
    21:00 +15°C° 0 mm 1 m/s 758 mmHg 95%
    22:00 +15°C° 0 mm 2 m/s 758 mmHg 95%
    23:00 +15°C° 0 mm 2 m/s 758 mmHg 95%

    Poimâine, 7 Iunie, Duminică

    Timp Temperatura Precipitaţii Vânt Presiune Umiditate
    00:00 +15°C° 0 mm 2 m/s 758 mmHg 94%
    01:00 +15°C° 0 mm 2 m/s 758 mmHg 93%
    02:00 +15°C° 0 mm 2 m/s 759 mmHg 92%
    03:00 +15°C° 0 mm 1 m/s 759 mmHg 92%
    04:00 +15°C° 0 mm 1 m/s 759 mmHg 91%
    05:00 +15°C° 0 mm 1 m/s 759 mmHg 90%
    06:00 +15°C° 0 mm 1 m/s 759 mmHg 90%
    07:00 +15°C° 0 mm 1 m/s 760 mmHg 89%
    08:00 +15°C° 0 mm 1 m/s 760 mmHg 88%
    09:00 +16°C° 0 mm 1 m/s 760 mmHg 82%
    10:00 +19°C° 0 mm 1 m/s 761 mmHg 75%
    11:00 +20°C° 0 mm 1 m/s 761 mmHg 68%
    12:00 +20°C° 0 mm 1 m/s 760 mmHg 67%
    13:00 +20°C° 0 mm 1 m/s 760 mmHg 66%
    14:00 +20°C° 0 mm 1 m/s 760 mmHg 65%
    15:00 +20°C° 0 mm 1 m/s 760 mmHg 67%
    16:00 +20°C° 0 mm 1 m/s 760 mmHg 69%
    17:00 +19°C° 0 mm 1 m/s 760 mmHg 71%
    18:00 +19°C° 0 mm 1 m/s 760 mmHg 72%
    19:00 +19°C° 0 mm 1 m/s 760 mmHg 72%
    20:00 +19°C° 0 mm 1 m/s 761 mmHg 73%
    21:00 +18°C° 0 mm 1 m/s 761 mmHg 75%
    22:00 +18°C° 0 mm 1 m/s 761 mmHg 77%
    23:00 +16°C° 0 mm 2 m/s 761 mmHg 80%

    8 Iunie, Luni

    Timp Temperatura Precipitaţii Vânt Presiune Umiditate
    00:00 +16°C° 0 mm 2 m/s 761 mmHg 80%
    01:00 +15°C° 0 mm 2 m/s 761 mmHg 81%
    02:00 +15°C° 0 mm 2 m/s 761 mmHg 82%
    03:00 +15°C° 0 mm 2 m/s 761 mmHg 83%
    04:00 +15°C° 0 mm 2 m/s 761 mmHg 84%
    05:00 +15°C° 0 mm 2 m/s 761 mmHg 85%
    06:00 +15°C° 0 mm 2 m/s 761 mmHg 84%
    07:00 +15°C° 0 mm 2 m/s 761 mmHg 83%
    08:00 +15°C° 0 mm 1 m/s 761 mmHg 83%
    09:00 +18°C° 0 mm 1 m/s 761 mmHg 77%
    10:00 +19°C° 0 mm 1 m/s 761 mmHg 72%
    11:00 +21°C° 0 mm 1 m/s 761 mmHg 66%
    12:00 +21°C° 0 mm 1 m/s 760 mmHg 62%
    13:00 +22°C° 0 mm 1 m/s 759 mmHg 58%
    14:00 +22°C° 0 mm 1 m/s 759 mmHg 54%
    15:00 +22°C° 0 mm 1 m/s 759 mmHg 58%
    16:00 +21°C° 0 mm 1 m/s 759 mmHg 62%
    17:00 +20°C° 0 mm 1 m/s 759 mmHg 65%
    18:00 +18°C° 0 mm 2 m/s 759 mmHg 68%
    19:00 +18°C° 0 mm 2 m/s 759 mmHg 71%
    20:00 +17°C° 0 mm 2 m/s 759 mmHg 74%
    21:00 +17°C° 0 mm 2 m/s 759 mmHg 74%
    22:00 +17°C° 0 mm 2 m/s 760 mmHg 75%
    23:00 +16°C° 0 mm 3 m/s 760 mmHg 76%

    9 Iunie, Marţi

    Timp Temperatura Precipitaţii Vânt Presiune Umiditate
    00:00 +16°C° 0 mm 3 m/s 760 mmHg 76%
    01:00 +16°C° 0 mm 3 m/s 760 mmHg 76%
    02:00 +16°C° 0 mm 3 m/s 760 mmHg 76%
    03:00 +15°C° 0 mm 2 m/s 760 mmHg 74%
    04:00 +15°C° 0 mm 2 m/s 760 mmHg 73%
    05:00 +14°C° 0 mm 2 m/s 760 mmHg 72%
    06:00 +13°C° 0 mm 3 m/s 760 mmHg 65%
    07:00 +13°C° 0 mm 4 m/s 761 mmHg 57%
    08:00 +13°C° 0 mm 4 m/s 761 mmHg 50%
    09:00 +13°C° 0 mm 4 m/s 761 mmHg 45%
    10:00 +14°C° 0 mm 4 m/s 761 mmHg 40%
    11:00 +15°C° 0 mm 4 m/s 762 mmHg 35%
    12:00 +16°C° 0 mm 3 m/s 761 mmHg 33%
    13:00 +17°C° 0 mm 3 m/s 761 mmHg 31%
    14:00 +17°C° 0 mm 2 m/s 760 mmHg 29%
    15:00 +16°C° 0 mm 2 m/s 760 mmHg 31%
    16:00 +16°C° 0 mm 1 m/s 760 mmHg 33%
    17:00 +15°C° 0 mm 1 m/s 760 mmHg 34%
    18:00 +15°C° 0 mm 1 m/s 760 mmHg 35%
    19:00 +14°C° 0 mm 1 m/s 760 mmHg 36%
    20:00 +13°C° 0 mm 0 m/s 760 mmHg 38%
    21:00 +13°C° 0 mm 1 m/s 760 mmHg 38%
    22:00 +13°C° 0 mm 1 m/s 760 mmHg 38%
    23:00 +13°C° 0 mm 1 m/s 760 mmHg 39%

    10 Iunie, Miercuri

    Timp Temperatura Precipitaţii Vânt Presiune Umiditate
    00:00 +12°C° 0 mm 1 m/s 760 mmHg 40%
    01:00 +12°C° 0 mm 2 m/s 759 mmHg 41%
    02:00 +12°C° 0 mm 2 m/s 759 mmHg 42%
    03:00 +12°C° 0 mm 2 m/s 759 mmHg 44%
    04:00 +10°C° 0 mm 2 m/s 759 mmHg 45%
    05:00 +10°C° 0 mm 2 m/s 759 mmHg 46%
    06:00 +10°C° 0 mm 2 m/s 759 mmHg 47%
    07:00 +10°C° 0 mm 3 m/s 759 mmHg 47%
    08:00 +10°C° 0 mm 3 m/s 759 mmHg 48%
    09:00 +12°C° 0 mm 3 m/s 759 mmHg 43%
    10:00 +13°C° 0 mm 3 m/s 759 mmHg 38%
    11:00 +16°C° 0 mm 3 m/s 759 mmHg 33%
    12:00 +17°C° 0 mm 3 m/s 758 mmHg 32%
    13:00 +17°C° 0 mm 3 m/s 758 mmHg 31%
    14:00 +18°C° 0 mm 3 m/s 757 mmHg 31%
    15:00 +18°C° 0 mm 3 m/s 757 mmHg 35%
    16:00 +17°C° 0 mm 3 m/s 757 mmHg 40%
    17:00 +16°C° 0 mm 3 m/s 758 mmHg 45%
    18:00 +16°C° 0 mm 3 m/s 758 mmHg 49%
    19:00 +14°C° 0 mm 3 m/s 758 mmHg 54%
    20:00 +14°C° 0 mm 3 m/s 758 mmHg 58%
    21:00 +13°C° 0 mm 3 m/s 759 mmHg 60%
    22:00 +14°C° 0 mm 2 m/s 759 mmHg 63%
    23:00 +13°C° 0 mm 2 m/s 759 mmHg 66%
    Arată mai mult